TimeCDT,TemperatureF,Dew PointF,Humidity,Sea Level PressureIn,VisibilityMPH,Wind Direction,Wind SpeedMPH,Gust SpeedMPH,PrecipitationIn,Events,Conditions,WindDirDegrees,DateUTC
12:53 AM,64.9,62.1,90,30.01,10.0,North,5.8,-,N/A,,Overcast,350,2013-08-03 05:53:00
1:53 AM,64.9,62.1,90,30.03,10.0,NNW,3.5,-,N/A,,Overcast,340,2013-08-03 06:53:00
2:53 AM,66.0,62.1,87,30.01,10.0,North,4.6,-,N/A,,Overcast,10,2013-08-03 07:53:00
3:53 AM,64.0,61.0,90,30.00,10.0,North,3.5,-,N/A,,Clear,360,2013-08-03 08:53:00
4:53 AM,63.0,60.1,90,29.99,10.0,NNE,6.9,-,N/A,,Clear,20,2013-08-03 09:53:00
5:53 AM,63.0,59.0,87,30.01,10.0,NNE,8.1,-,N/A,,Clear,30,2013-08-03 10:53:00
6:53 AM,63.0,57.9,84,30.04,10.0,North,5.8,-,N/A,,Clear,10,2013-08-03 11:53:00
7:53 AM,66.9,57.9,73,30.07,10.0,ENE,5.8,-,N/A,,Clear,60,2013-08-03 12:53:00
8:53 AM,71.1,57.0,61,30.09,10.0,NE,6.9,-,N/A,,Clear,50,2013-08-03 13:53:00
9:53 AM,73.9,57.0,55,30.09,10.0,NE,8.1,-,N/A,,Clear,40,2013-08-03 14:53:00
10:53 AM,75.9,54.0,46,30.11,10.0,Variable,4.6,-,N/A,,Clear,0,2013-08-03 15:53:00
11:53 AM,78.1,54.0,43,30.12,10.0,NNW,6.9,-,N/A,,Clear,340,2013-08-03 16:53:00
12:53 PM,78.1,54.0,43,30.11,10.0,NE,6.9,-,N/A,,Clear,50,2013-08-03 17:53:00
1:53 PM,78.1,54.0,43,30.12,10.0,NNE,5.8,-,N/A,,Clear,20,2013-08-03 18:53:00
2:53 PM,80.1,54.0,40,30.11,10.0,NNE,9.2,-,N/A,,Clear,30,2013-08-03 19:53:00
3:53 PM,81.0,52.0,36,30.10,10.0,NNW,9.2,-,N/A,,Clear,330,2013-08-03 20:53:00
4:53 PM,79.0,53.1,40,30.10,10.0,NNW,4.6,-,N/A,,Clear,340,2013-08-03 21:53:00
5:53 PM,78.1,52.0,40,30.10,10.0,NNE,6.9,-,N/A,,Clear,20,2013-08-03 22:53:00
6:53 PM,77.0,55.9,48,30.10,10.0,NNE,10.4,-,N/A,,Clear,20,2013-08-03 23:53:00
7:53 PM,73.9,55.9,53,30.11,10.0,NNE,4.6,-,N/A,,Clear,30,2013-08-04 00:53:00
8:53 PM,70.0,57.0,63,30.12,10.0,NNE,5.8,-,N/A,,Clear,20,2013-08-04 01:53:00
9:53 PM,64.9,57.0,75,30.14,10.0,North,5.8,-,N/A,,Clear,360,2013-08-04 02:53:00
10:53 PM,63.0,55.9,78,30.16,10.0,North,6.9,-,N/A,,Clear,360,2013-08-04 03:53:00
11:53 PM,62.1,55.9,80,30.17,10.0,North,5.8,-,N/A,,Clear,350,2013-08-04 04:53:00